MyTimes logo

TIMES

Webb Imagery

24/02/2008
Cowes Classic
500m Swim / 4.0km Run - Local Residents

(Click on competitor name to view personalised results)

Name
Race #
Category
Team Name
Time
(h:mm:ss)
Avg Speed
km/hr
OAll
Place
Cat
Place
ROWE Mark#272Senior Male0:21:34 12.5 11
DALLINGER Andrew#831Senior Male0:24:07 11.2 22
FLIESNER Robert#4840-49 Male0:24:14 11.1 31
EVANS Brad#240Senior Male0:24:17 11.1 43
PLANT Luke#34Junior Male0:24:18 11.1 51
KERR Lewis#115Junior Male0:25:15 10.7 62
YUSKO Bill#9550+ Male0:25:33 10.6 71
BUTT Chloe#20Junior Female0:26:04 10.4 81
KEADY Arran#828Senior Male0:26:13 10.3 94
HARRISON Hamish#29Junior Male0:26:47 10.1 103
DALLINGER Chris#830Senior Male0:26:51 10.1 115
HUTCHINSON Warwick#5440-49 Male0:26:56 10 122
CORBETT James#10440-49 Male0:26:59 10 133
WEIR Jake#809Senior Male0:27:01 10 146
WATSON Russell#278Senior Male0:27:34 9.8 157
DOCHERTY Josh#97Junior Male0:27:42 9.7 164
HEWETT Noel#5040-49 Male0:27:45 9.7 174
MATHEWS Jack#256Senior Male0:27:53 9.7 188
WHEELER Matthew#279Senior Male0:27:54 9.7 199
TURNER Peter#11740-49 Male0:27:55 9.7 205
HOMER Ivan#5140-49 Male0:28:19 9.5 216
CROWE Susie#122Junior Female0:28:36 9.4 222
CHISHOLM Andy#234Senior Male0:28:43 9.4 2310
JUDD Alex#32Junior Male0:28:43 9.4 245
DAVIE Krystal#21Junior Female0:28:43 9.4 253
CROWE Damien#12350+ Male0:28:44 9.4 262
ALDERSON Allan#7250+ Male0:28:56 9.3 273
ROBINSON Jamie#39Junior Male0:29:28 9.2 286
VERNON Beau#820Senior Male0:29:47 9.1 2911
BOND Marcus#232Senior Male0:29:59 9 3012
ROBERTSON Simon#270Senior Male0:29:59 9 3113
LAW Stuan#105Junior Male0:30:10 9 327
BROWN Matt#819Senior Male0:30:12 8.9 3314
MAHON Debbi#212Senior Female0:30:21 8.9 341
LINFORD Rob#299Senior Male0:30:24 8.9 3515
DAVIE Jasmine#22Junior Female0:30:32 8.8 364
SMITH James#102Junior Male0:30:33 8.8 378
DAVIE Angela#240-49 Female0:30:39 8.8 381
MATHEWS Robert#9150+ Male0:30:50 8.8 394
HOMER Jack#108Junior Male0:32:00 8.4 409
PLANT Cassie#26Junior Female0:32:17 8.4 415
HAIN Jacqui#295Senior Female0:34:02 7.9 422
MANNING Simon#6140-49 Male0:34:24 7.8 437
FITZGERALD Amy#286Senior Female0:34:28 7.8 443
CAIN Gregory#12450+ Male0:34:33 7.8 455
STAFFORD Rachel#294Senior Female0:35:40 7.6 464
CARTER Dean#7650+ Male0:35:48 7.5 476
DAVIE Steve#11950+ Male0:35:55 7.5 487
FITZGERALD Richard#8850+ Male0:36:11 7.5 498
DALLINGER Brian#7850+ Male0:36:56 7.3 509
REEK George#11350+ Male0:42:57 6.3 5110